RYR7VH LEMD-GMTT

Flight info

Callsign RYR7VH
Flight time 1h 5m
Altitude 37000
Route VTB N10 LINTO DCT NOLRO
Aircraft B738/M-SDE2E3FGHIRWXY/LB1

Departure

Time 2026-05-05 13:36
Airport Adolfo Suárez Madrid–Barajas Airport (LEMD)

Arrival

Time 2026-05-05 14:41
Airport Tangier Ibn Battuta Airport (GMTT)
Time Latitude Longitude Altitude Speed Heading
2026-05-05 12:55 40.46329 -3.56869 1973 ft 0 kts 300°
2026-05-05 13:17 40.46323 -3.56857 1970 ft 2 kts 300°
2026-05-05 13:18 40.46315 -3.56838 1976 ft 2 kts 300°
2026-05-05 13:18 40.46307 -3.56820 1975 ft 2 kts 309°
2026-05-05 13:18 40.46294 -3.56807 1976 ft 2 kts
2026-05-05 13:18 40.46285 -3.56810 1976 ft 1 kts 32°
2026-05-05 13:24 40.46293 -3.56801 1974 ft 5 kts 43°
2026-05-05 13:25 40.46300 -3.56742 1970 ft 9 kts 93°
2026-05-05 13:25 40.46299 -3.56647 1970 ft 12 kts 82°
2026-05-05 13:25 40.46372 -3.56594 1971 ft 15 kts
2026-05-05 13:25 40.46484 -3.56585 1971 ft 18 kts
2026-05-05 13:26 40.46618 -3.56574 1972 ft 21 kts
2026-05-05 13:26 40.46772 -3.56561 1973 ft 23 kts
2026-05-05 13:26 40.46940 -3.56548 1975 ft 25 kts
2026-05-05 13:26 40.47104 -3.56594 1981 ft 24 kts 332°
2026-05-05 13:27 40.47235 -3.56717 1983 ft 23 kts 322°
2026-05-05 13:27 40.47357 -3.56840 1987 ft 22 kts 322°
2026-05-05 13:27 40.47476 -3.56961 1991 ft 21 kts 322°
2026-05-05 13:27 40.47587 -3.57074 1994 ft 20 kts 322°
2026-05-05 13:28 40.47694 -3.57182 1998 ft 19 kts 322°
2026-05-05 13:28 40.47797 -3.57287 2001 ft 17 kts 322°
2026-05-05 13:28 40.47883 -3.57374 2003 ft 14 kts 322°
2026-05-05 13:28 40.47982 -3.57476 2002 ft 23 kts 322°
2026-05-05 13:29 40.48111 -3.57608 1998 ft 24 kts 322°
2026-05-05 13:29 40.48242 -3.57741 1994 ft 24 kts 322°
2026-05-05 13:29 40.48381 -3.57874 1990 ft 26 kts 328°
2026-05-05 13:29 40.48524 -3.57993 1999 ft 22 kts 327°
2026-05-05 13:30 40.48645 -3.58050 2002 ft 18 kts 359°
2026-05-05 13:30 40.48735 -3.58046 2002 ft 10 kts 20°
2026-05-05 13:30 40.48763 -3.57963 1999 ft 12 kts 85°
2026-05-05 13:30 40.48766 -3.57847 1995 ft 13 kts 92°
2026-05-05 13:31 40.48764 -3.57768 1992 ft 12 kts 93°
2026-05-05 13:31 40.48762 -3.57585 1989 ft 22 kts 85°
2026-05-05 13:31 40.48770 -3.57385 1987 ft 22 kts 90°
2026-05-05 13:31 40.48807 -3.57235 1983 ft 17 kts 20°
2026-05-05 13:32 40.48906 -3.57229 1982 ft 11 kts 359°
2026-05-05 13:32 40.48961 -3.57229 1982 ft 4 kts
2026-05-05 13:32 40.48966 -3.57229 1982 ft 0 kts
2026-05-05 13:32 40.49021 -3.57228 1982 ft 12 kts
2026-05-05 13:33 40.49091 -3.57228 1982 ft 7 kts 360°
2026-05-05 13:33 40.49150 -3.57232 1983 ft 11 kts 347°
2026-05-05 13:33 40.49182 -3.57282 1984 ft 7 kts 275°
2026-05-05 13:33 40.49181 -3.57336 1983 ft 0 kts 268°
2026-05-05 13:34 40.49181 -3.57350 1983 ft 4 kts 267°
2026-05-05 13:35 40.49181 -3.57407 1984 ft 9 kts 279°
2026-05-05 13:35 40.49232 -3.57452 1984 ft 11 kts 359°
2026-05-05 13:35 40.49323 -3.57454 1982 ft 24 kts 359°
2026-05-05 13:35 40.49757 -3.57460 1984 ft 102 kts 360°
2026-05-05 13:36 40.50701 -3.57488 2011 ft 165 kts 356°
2026-05-05 13:36 40.51919 -3.57520 2743 ft 176 kts 357°
2026-05-05 13:36 40.53102 -3.57517 3896 ft 168 kts 355°
2026-05-05 13:36 40.54342 -3.57549 4545 ft 191 kts 355°
2026-05-05 13:37 40.55736 -3.57845 4915 ft 210 kts 328°
2026-05-05 13:37 40.56705 -3.59211 5525 ft 207 kts 291°
2026-05-05 13:37 40.57361 -3.60938 6116 ft 216 kts 307°
2026-05-05 13:37 40.58127 -3.62592 6769 ft 214 kts 282°
2026-05-05 13:38 40.57935 -3.64517 7444 ft 221 kts 243°
2026-05-05 13:38 40.56797 -3.65860 8119 ft 230 kts 204°
2026-05-05 13:38 40.55181 -3.66009 8851 ft 241 kts 173°
2026-05-05 13:38 40.53498 -3.65564 9295 ft 263 kts 172°
2026-05-05 13:39 40.51604 -3.65088 9641 ft 286 kts 172°
2026-05-05 13:39 40.49605 -3.64582 10336 ft 295 kts 172°
2026-05-05 13:39 40.47486 -3.64043 10605 ft 322 kts 172°
2026-05-05 13:39 40.45210 -3.63465 10876 ft 344 kts 172°
2026-05-05 13:40 40.42819 -3.62852 11534 ft 353 kts 172°
2026-05-05 13:40 40.40413 -3.62232 12365 ft 356 kts 172°
2026-05-05 13:40 40.37960 -3.61600 13187 ft 361 kts 172°
2026-05-05 13:40 40.35498 -3.60968 13952 ft 366 kts 172°
2026-05-05 13:41 40.32985 -3.60324 14700 ft 369 kts 172°
2026-05-05 13:41 40.30440 -3.59672 15453 ft 372 kts 172°
2026-05-05 13:41 40.27910 -3.59025 16187 ft 375 kts 172°
2026-05-05 13:41 40.25311 -3.58362 16921 ft 379 kts 172°
2026-05-05 13:42 40.22736 -3.57705 17648 ft 383 kts 173°
2026-05-05 13:42 40.20103 -3.57035 18322 ft 387 kts 173°
2026-05-05 13:42 40.17437 -3.56357 18920 ft 391 kts 173°
2026-05-05 13:42 40.14776 -3.55680 19543 ft 394 kts 174°
2026-05-05 13:43 40.12061 -3.54990 20168 ft 397 kts 174°
2026-05-05 13:43 40.09316 -3.54293 20756 ft 401 kts 174°
2026-05-05 13:43 40.06591 -3.53602 21329 ft 405 kts 175°
2026-05-05 13:43 40.03807 -3.52897 21909 ft 408 kts 175°
2026-05-05 13:44 40.00991 -3.52183 22472 ft 412 kts 176°
2026-05-05 13:44 39.98195 -3.51476 23017 ft 415 kts 176°
2026-05-05 13:44 39.95329 -3.50751 23546 ft 419 kts 177°
2026-05-05 13:44 39.92474 -3.50029 23978 ft 422 kts 178°
2026-05-05 13:45 39.89570 -3.49294 24432 ft 425 kts 178°
2026-05-05 13:45 39.86652 -3.48557 24874 ft 427 kts 178°
2026-05-05 13:45 39.83753 -3.47827 25300 ft 429 kts 179°
2026-05-05 13:45 39.80807 -3.47417 25678 ft 415 kts 194°
2026-05-05 13:46 39.78082 -3.48177 26121 ft 395 kts 210°
2026-05-05 13:46 39.75673 -3.49773 26599 ft 381 kts 223°
2026-05-05 13:46 39.73703 -3.51980 27039 ft 374 kts 231°
2026-05-05 13:46 39.71874 -3.54395 27446 ft 374 kts 233°
2026-05-05 13:47 39.70062 -3.56846 27825 ft 377 kts 233°
2026-05-05 13:47 39.68229 -3.59316 28222 ft 379 kts 233°
2026-05-05 13:47 39.66394 -3.61762 28635 ft 380 kts 232°
2026-05-05 13:47 39.64534 -3.64218 29013 ft 382 kts 232°
2026-05-05 13:48 39.62665 -3.66672 29327 ft 385 kts 232°
2026-05-05 13:48 39.60772 -3.69148 29919 ft 382 kts 232°
2026-05-05 13:48 39.58921 -3.71563 30428 ft 379 kts 232°
2026-05-05 13:48 39.57061 -3.73993 30694 ft 381 kts 232°
2026-05-05 13:49 39.55819 -3.75617 30842 ft 383 kts 232°
2026-05-05 13:49 39.53940 -3.78074 31152 ft 384 kts 232°
2026-05-05 13:49 39.52054 -3.80538 31548 ft 383 kts 232°
2026-05-05 13:49 39.50194 -3.82965 31911 ft 382 kts 232°
2026-05-05 13:50 39.48311 -3.85422 32240 ft 383 kts 232°
2026-05-05 13:50 39.46427 -3.87879 32566 ft 383 kts 232°
2026-05-05 13:50 39.44562 -3.90310 32926 ft 382 kts 232°
2026-05-05 13:50 39.42679 -3.92760 33299 ft 381 kts 232°
2026-05-05 13:51 39.40827 -3.95169 33638 ft 381 kts 232°
2026-05-05 13:51 39.38951 -3.97608 33960 ft 381 kts 232°
2026-05-05 13:51 39.37096 -4.00018 34248 ft 381 kts 232°
2026-05-05 13:51 39.35213 -4.02462 34505 ft 381 kts 232°
2026-05-05 13:52 39.33338 -4.04894 34716 ft 383 kts 231°
2026-05-05 13:52 39.31475 -4.07310 34954 ft 383 kts 231°
2026-05-05 13:52 39.28965 -4.10558 35319 ft 383 kts 231°
2026-05-05 13:52 39.27713 -4.12178 35457 ft 384 kts 231°
2026-05-05 13:53 39.25819 -4.14626 35669 ft 384 kts 231°
2026-05-05 13:53 39.23920 -4.17080 35912 ft 385 kts 231°
2026-05-05 13:53 39.22024 -4.19527 36130 ft 386 kts 231°
2026-05-05 13:53 39.20133 -4.21966 36321 ft 387 kts 230°
2026-05-05 13:54 39.18233 -4.24414 36555 ft 388 kts 230°
2026-05-05 13:54 39.16319 -4.26878 36799 ft 388 kts 230°
2026-05-05 13:54 39.14425 -4.29315 36956 ft 390 kts 230°
2026-05-05 13:54 39.12486 -4.31808 36943 ft 392 kts 230°
2026-05-05 13:55 39.08636 -4.36749 36957 ft 389 kts 230°
2026-05-05 13:55 39.04800 -4.41664 36953 ft 387 kts 230°
2026-05-05 13:56 39.01002 -4.46526 36954 ft 385 kts 230°
2026-05-05 13:56 38.97225 -4.51354 36952 ft 384 kts 230°
2026-05-05 13:57 38.93444 -4.56176 36958 ft 383 kts 230°
2026-05-05 13:57 38.89660 -4.60989 36976 ft 383 kts 230°
2026-05-05 13:58 38.85866 -4.65806 36959 ft 385 kts 230°
2026-05-05 13:58 38.82046 -4.70650 36965 ft 386 kts 230°
2026-05-05 13:59 38.76302 -4.77921 36965 ft 388 kts 230°
2026-05-05 14:00 38.70549 -4.85185 36973 ft 389 kts 230°
2026-05-05 14:00 38.66682 -4.90059 36970 ft 389 kts 230°
2026-05-05 14:01 38.62824 -4.94914 36971 ft 389 kts 230°
2026-05-05 14:01 38.58981 -4.99744 36974 ft 389 kts 230°
2026-05-05 14:02 38.55104 -5.04608 36966 ft 388 kts 230°
2026-05-05 14:02 38.51139 -5.09309 36964 ft 392 kts 223°
2026-05-05 14:03 38.46370 -5.12850 36981 ft 401 kts 213°
2026-05-05 14:03 38.41351 -5.15922 36972 ft 401 kts 213°
2026-05-05 14:04 38.36319 -5.19009 36964 ft 400 kts 213°
2026-05-05 14:04 38.31340 -5.22082 36967 ft 400 kts 213°
2026-05-05 14:05 38.26343 -5.25172 36973 ft 399 kts 213°
2026-05-05 14:05 38.21326 -5.28274 36973 ft 399 kts 213°
2026-05-05 14:06 38.16342 -5.31350 36969 ft 399 kts 213°
2026-05-05 14:06 38.11351 -5.34425 36981 ft 399 kts 213°
2026-05-05 14:07 38.06363 -5.37494 36969 ft 399 kts 213°
2026-05-05 14:07 38.01365 -5.40564 36993 ft 399 kts 213°
2026-05-05 14:08 37.96380 -5.43621 36983 ft 399 kts 213°
2026-05-05 14:08 37.91361 -5.46695 36981 ft 400 kts 213°
2026-05-05 14:09 37.86370 -5.49748 36988 ft 400 kts 213°
2026-05-05 14:09 37.81352 -5.52812 36978 ft 401 kts 212°
2026-05-05 14:10 37.76296 -5.55894 36980 ft 401 kts 212°
2026-05-05 14:10 37.71257 -5.58961 36972 ft 402 kts 212°
2026-05-05 14:11 37.66241 -5.62010 36978 ft 402 kts 212°
2026-05-05 14:11 37.61196 -5.65071 36980 ft 402 kts 212°
2026-05-05 14:12 37.56169 -5.68118 36982 ft 402 kts 212°
2026-05-05 14:12 37.51131 -5.71167 36990 ft 401 kts 212°
2026-05-05 14:13 37.46111 -5.74200 36987 ft 401 kts 212°
2026-05-05 14:13 37.40813 -5.76633 36986 ft 412 kts 198°
2026-05-05 14:14 37.35127 -5.77693 36986 ft 415 kts 195°
2026-05-05 14:14 37.29379 -5.78682 36991 ft 415 kts 195°
2026-05-05 14:15 37.23689 -5.79688 36986 ft 414 kts 195°
2026-05-05 14:15 37.17988 -5.80717 36990 ft 413 kts 195°
2026-05-05 14:16 37.12318 -5.81746 36989 ft 412 kts 195°
2026-05-05 14:16 37.06637 -5.82776 36990 ft 412 kts 195°
2026-05-05 14:17 37.00938 -5.83808 37001 ft 411 kts 195°
2026-05-05 14:17 36.95284 -5.84830 37004 ft 411 kts 195°
2026-05-05 14:18 36.89643 -5.85847 37012 ft 411 kts 195°
2026-05-05 14:18 36.83987 -5.86867 37010 ft 410 kts 195°
2026-05-05 14:19 36.78312 -5.87887 37015 ft 410 kts 195°
2026-05-05 14:19 36.72677 -5.88900 36851 ft 412 kts 195°
2026-05-05 14:20 36.69815 -5.89415 36415 ft 412 kts 195°
2026-05-05 14:20 36.66997 -5.89919 35887 ft 410 kts 195°
2026-05-05 14:20 36.64156 -5.90427 35291 ft 411 kts 195°
2026-05-05 14:20 36.61350 -5.90929 34713 ft 411 kts 194°
2026-05-05 14:21 36.58497 -5.91440 34108 ft 412 kts 194°
2026-05-05 14:21 36.55648 -5.91950 33423 ft 414 kts 194°
2026-05-05 14:21 36.52807 -5.92458 32754 ft 414 kts 194°
2026-05-05 14:21 36.49945 -5.92969 32093 ft 415 kts 194°
2026-05-05 14:22 36.47077 -5.93481 31432 ft 416 kts 194°
2026-05-05 14:22 36.44248 -5.93984 30956 ft 412 kts 194°
2026-05-05 14:22 36.41410 -5.94487 30482 ft 409 kts 194°
2026-05-05 14:22 36.38621 -5.94983 30002 ft 406 kts 194°
2026-05-05 14:23 36.35825 -5.95479 29456 ft 403 kts 194°
2026-05-05 14:23 36.33052 -5.95972 28981 ft 399 kts 194°
2026-05-05 14:23 36.30349 -5.96453 28502 ft 395 kts 193°
2026-05-05 14:23 36.27633 -5.96935 27998 ft 392 kts 193°
2026-05-05 14:24 36.24942 -5.97408 27549 ft 389 kts 192°
2026-05-05 14:24 36.22218 -5.97604 26912 ft 395 kts 184°
2026-05-05 14:24 36.19483 -5.97474 26367 ft 396 kts 182°
2026-05-05 14:24 36.16726 -5.97293 25856 ft 395 kts 182°
2026-05-05 14:25 36.14350 -5.97132 25443 ft 393 kts 182°
2026-05-05 14:25 36.11643 -5.96957 24976 ft 390 kts 182°
2026-05-05 14:25 36.08954 -5.96795 24515 ft 388 kts 182°
2026-05-05 14:25 36.06237 -5.96640 24029 ft 387 kts 182°
2026-05-05 14:26 36.03573 -5.96493 23558 ft 385 kts 182°
2026-05-05 14:26 36.00882 -5.96348 23006 ft 384 kts 182°
2026-05-05 14:26 35.98213 -5.96204 22515 ft 381 kts 182°
2026-05-05 14:26 35.95594 -5.96062 22048 ft 377 kts 182°
2026-05-05 14:27 35.92979 -5.95921 21587 ft 374 kts 182°
2026-05-05 14:27 35.90379 -5.95781 21141 ft 371 kts 182°
2026-05-05 14:27 35.87826 -5.95643 20696 ft 369 kts 182°
2026-05-05 14:27 35.85286 -5.95764 20230 ft 359 kts 197°
2026-05-05 14:28 35.82993 -5.96871 19700 ft 349 kts 214°
2026-05-05 14:28 35.81138 -5.98710 18768 ft 347 kts 231°
2026-05-05 14:28 35.79365 -6.00766 17806 ft 355 kts 213°
2026-05-05 14:28 35.77022 -6.01795 17053 ft 358 kts 194°
2026-05-05 14:29 35.74597 -6.02214 16414 ft 353 kts 190°
2026-05-05 14:29 35.72149 -6.02527 15692 ft 350 kts 189°
2026-05-05 14:29 35.69719 -6.02440 14930 ft 355 kts 169°
2026-05-05 14:29 35.67520 -6.01098 14252 ft 360 kts 142°
2026-05-05 14:30 35.65980 -5.98674 13598 ft 362 kts 116°
2026-05-05 14:30 35.65436 -5.95716 12897 ft 360 kts 89°
2026-05-05 14:30 35.65858 -5.92703 12277 ft 355 kts 73°
2026-05-05 14:30 35.66602 -5.89811 11649 ft 351 kts 71°
2026-05-05 14:31 35.67382 -5.86996 11071 ft 348 kts 70°
2026-05-05 14:31 35.68173 -5.84180 10505 ft 344 kts 70°
2026-05-05 14:31 35.68950 -5.81432 9903 ft 342 kts 70°
2026-05-05 14:31 35.69728 -5.78677 9350 ft 338 kts 70°
2026-05-05 14:32 35.70495 -5.75960 8837 ft 332 kts 70°
2026-05-05 14:32 35.71219 -5.73388 8730 ft 313 kts 70°
2026-05-05 14:32 35.71913 -5.70908 8604 ft 297 kts 70°
2026-05-05 14:32 35.72565 -5.68543 8501 ft 284 kts 70°
2026-05-05 14:33 35.72945 -5.66243 8360 ft 274 kts 95°
2026-05-05 14:33 35.72345 -5.64066 8012 ft 268 kts 129°
2026-05-05 14:33 35.71008 -5.62548 7705 ft 262 kts 146°
2026-05-05 14:33 35.69424 -5.61493 7441 ft 254 kts 161°
2026-05-05 14:34 35.67796 -5.60695 7066 ft 254 kts 161°
2026-05-05 14:34 35.66141 -5.59912 6711 ft 251 kts 162°
2026-05-05 14:34 35.64533 -5.59138 6426 ft 249 kts 163°
2026-05-05 14:34 35.63420 -5.58858 6069 ft 246 kts 185°
2026-05-05 14:35 35.61468 -5.59879 5791 ft 230 kts 231°
2026-05-05 14:35 35.60947 -5.60998 5515 ft 228 kts 256°
2026-05-05 14:35 35.61070 -5.62898 5330 ft 224 kts 294°
2026-05-05 14:35 35.62135 -5.64315 4926 ft 238 kts 327°
2026-05-05 14:36 35.63619 -5.65254 4722 ft 235 kts 330°
2026-05-05 14:36 35.65068 -5.66159 4489 ft 232 kts 329°
2026-05-05 14:36 35.66491 -5.67046 4324 ft 228 kts 330°
2026-05-05 14:36 35.67916 -5.67883 4168 ft 220 kts 329°
2026-05-05 14:37 35.69239 -5.68723 4002 ft 211 kts 329°
2026-05-05 14:37 35.70407 -5.69731 3546 ft 204 kts 299°
2026-05-05 14:37 35.70905 -5.71291 3276 ft 199 kts 285°
2026-05-05 14:37 35.71258 -5.72973 2967 ft 205 kts 283°
2026-05-05 14:38 35.71551 -5.74715 2686 ft 206 kts 279°
2026-05-05 14:38 35.71744 -5.76464 2402 ft 204 kts 276°
2026-05-05 14:38 35.71892 -5.78177 2126 ft 202 kts 276°
2026-05-05 14:38 35.72045 -5.79890 1876 ft 199 kts 276°
2026-05-05 14:39 35.72199 -5.81572 1570 ft 194 kts 277°
2026-05-05 14:39 35.72357 -5.83136 1329 ft 176 kts 276°
2026-05-05 14:39 35.72468 -5.84586 1114 ft 164 kts 277°
2026-05-05 14:39 35.72581 -5.85933 947 ft 154 kts 278°
2026-05-05 14:40 35.72716 -5.87227 718 ft 148 kts 277°
2026-05-05 14:40 35.72832 -5.88484 509 ft 143 kts 277°
2026-05-05 14:40 35.72939 -5.89683 316 ft 144 kts 277°
2026-05-05 14:40 35.73050 -5.90873 71 ft 135 kts 277°
2026-05-05 14:41 35.73138 -5.91848 56 ft 86 kts 277°
2026-05-05 14:41 35.73191 -5.92385 50 ft 46 kts 276°
2026-05-05 14:41 35.73170 -5.92582 47 ft 21 kts 224°
2026-05-05 14:41 35.73046 -5.92577 47 ft 20 kts 128°
2026-05-05 14:42 35.73013 -5.92412 47 ft 20 kts 97°
2026-05-05 14:42 35.72991 -5.92204 52 ft 29 kts 97°
2026-05-05 14:42 35.72968 -5.91957 55 ft 29 kts 96°
2026-05-05 14:42 35.72936 -5.91749 54 ft 20 kts 129°
2026-05-05 14:43 35.72805 -5.91714 58 ft 20 kts 176°
2026-05-05 14:43 35.72670 -5.91701 59 ft 19 kts 174°
2026-05-05 14:43 35.72540 -5.91688 59 ft 18 kts 173°
2026-05-05 14:43 35.72439 -5.91610 59 ft 18 kts 117°
2026-05-05 14:44 35.72432 -5.91463 62 ft 17 kts 85°
2026-05-05 14:44 35.72449 -5.91349 58 ft 10 kts 40°
2026-05-05 14:44 35.72518 -5.91345 60 ft 8 kts 354°
2026-05-05 14:44 35.72528 -5.91346 62 ft 0 kts 355°